Time,TemperatureF,DewpointF,PressureIn,WindDirection,WindDirectionDegrees,WindSpeedMPH,WindSpeedGustMPH,Humidity,HourlyPrecipIn,Conditions,Clouds,dailyrainin,SoftwareType,DateUTC
2013-02-02 00:00:00,9.4,3.9,30.15,SW,225,3.4,6.0,78,0.00,,,0.00,WUHU216HW,2013-02-02 05:00:00,
2013-02-02 00:05:00,9.5,4.1,30.15,SW,225,4.7,6.3,78,0.00,,,0.00,WUHU216HW,2013-02-02 05:05:00,
2013-02-02 00:10:00,9.7,4.1,30.15,SSW,203,3.1,6.3,78,0.00,,,0.00,WUHU216HW,2013-02-02 05:10:00,
2013-02-02 00:15:00,9.7,4.1,30.14,SW,225,5.4,6.0,78,0.00,,,0.00,WUHU216HW,2013-02-02 05:15:00,
2013-02-02 00:20:00,9.9,4.3,30.14,SSW,203,5.1,6.3,78,0.00,,,0.00,WUHU216HW,2013-02-02 05:20:00,
2013-02-02 00:25:00,9.9,4.3,30.14,SSW,203,2.5,6.5,78,0.00,,,0.00,WUHU216HW,2013-02-02 05:25:00,
2013-02-02 00:30:00,10.1,4.5,30.14,WSW,248,3.4,6.5,78,0.00,,,0.00,WUHU216HW,2013-02-02 05:30:00,
2013-02-02 00:35:00,10.1,4.5,30.14,WSW,248,3.4,6.0,78,0.00,,,0.00,WUHU216HW,2013-02-02 05:35:00,
2013-02-02 00:40:00,10.1,4.5,30.14,SW,225,4.0,7.6,78,0.00,,,0.00,WUHU216HW,2013-02-02 05:40:00,
2013-02-02 00:45:00,10.1,4.5,30.14,WSW,248,4.7,7.6,78,0.00,,,0.00,WUHU216HW,2013-02-02 05:45:00,
2013-02-02 00:50:00,10.1,4.5,30.14,SSW,203,4.0,6.9,78,0.00,,,0.00,WUHU216HW,2013-02-02 05:50:00,
2013-02-02 00:55:00,10.1,4.5,30.14,SW,225,4.5,5.6,78,0.00,,,0.00,WUHU216HW,2013-02-02 05:55:00,
2013-02-02 01:00:00,10.1,4.5,30.14,SW,225,1.3,5.4,78,0.00,,,0.00,WUHU216HW,2013-02-02 06:00:00,
2013-02-02 01:05:00,10.1,4.5,30.14,SSW,203,6.9,6.9,78,0.00,,,0.00,WUHU216HW,2013-02-02 06:05:00,
2013-02-02 01:10:00,9.9,4.3,30.13,SSW,203,5.1,6.9,78,0.00,,,0.00,WUHU216HW,2013-02-02 06:10:00,
2013-02-02 01:15:00,9.9,4.3,30.13,South,180,3.1,6.3,78,0.00,,,0.00,WUHU216HW,2013-02-02 06:15:00,
2013-02-02 01:20:00,9.9,4.3,30.13,SW,225,5.4,6.3,78,0.00,,,0.00,WUHU216HW,2013-02-02 06:20:00,
2013-02-02 01:25:00,10.1,4.8,30.13,SSW,203,5.4,6.3,79,0.00,,,0.00,WUHU216HW,2013-02-02 06:25:00,
2013-02-02 01:30:00,9.9,4.6,30.13,WSW,248,4.0,6.5,79,0.00,,,0.00,WUHU216HW,2013-02-02 06:30:00,
2013-02-02 01:35:00,10.1,4.8,30.13,SW,225,7.2,7.2,79,0.00,,,0.00,WUHU216HW,2013-02-02 06:35:00,
2013-02-02 01:40:00,10.1,4.8,30.12,SW,225,3.1,7.2,79,0.00,,,0.00,WUHU216HW,2013-02-02 06:40:00,
2013-02-02 01:45:00,10.1,4.8,30.12,SW,225,5.4,7.2,79,0.00,,,0.00,WUHU216HW,2013-02-02 06:45:00,
2013-02-02 01:50:00,10.1,4.8,30.12,SW,225,3.4,5.8,79,0.00,,,0.00,WUHU216HW,2013-02-02 06:50:00,
2013-02-02 01:55:00,10.1,4.8,30.12,SSW,203,3.4,5.8,79,0.00,,,0.00,WUHU216HW,2013-02-02 06:55:00,
2013-02-02 02:00:00,10.1,4.8,30.12,SSW,203,5.1,6.0,79,0.00,,,0.00,WUHU216HW,2013-02-02 07:00:00,
2013-02-02 02:05:00,10.1,4.8,30.12,SSW,203,3.4,6.3,79,0.00,,,0.00,WUHU216HW,2013-02-02 07:05:00,
2013-02-02 02:10:00,10.3,5.2,30.12,SW,225,6.3,6.3,80,0.00,,,0.00,WUHU216HW,2013-02-02 07:10:00,
2013-02-02 02:15:00,10.4,5.4,30.12,SSW,203,3.6,6.7,80,0.00,,,0.00,WUHU216HW,2013-02-02 07:15:00,
2013-02-02 02:20:00,10.4,5.7,30.12,SW,225,5.8,8.3,81,0.00,,,0.00,WUHU216HW,2013-02-02 07:20:00,
2013-02-02 02:25:00,10.6,5.9,30.11,SSW,203,4.3,8.3,81,0.00,,,0.00,WUHU216HW,2013-02-02 07:25:00,
2013-02-02 02:30:00,10.8,6.0,30.11,SW,225,4.9,8.1,81,0.00,,,0.00,WUHU216HW,2013-02-02 07:30:00,
2013-02-02 02:35:00,11.0,6.2,30.11,SW,225,6.0,8.3,81,0.00,,,0.00,WUHU216HW,2013-02-02 07:35:00,
2013-02-02 02:40:00,11.0,6.2,30.11,SSW,203,6.3,8.3,81,0.00,,,0.00,WUHU216HW,2013-02-02 07:40:00,
2013-02-02 02:45:00,11.2,6.4,30.10,SW,225,9.2,10.5,81,0.00,,,0.00,WUHU216HW,2013-02-02 07:45:00,
2013-02-02 02:50:00,11.2,6.4,30.11,SW,225,5.4,10.5,81,0.00,,,0.00,WUHU216HW,2013-02-02 07:50:00,
2013-02-02 02:55:00,11.3,6.6,30.10,SW,225,4.7,9.2,81,0.00,,,0.00,WUHU216HW,2013-02-02 07:55:00,
2013-02-02 03:00:00,11.3,6.6,30.10,SSW,203,6.0,8.7,81,0.00,,,0.00,WUHU216HW,2013-02-02 08:00:00,
2013-02-02 03:05:00,11.5,6.8,30.10,SW,225,5.6,9.2,81,0.00,,,0.00,WUHU216HW,2013-02-02 08:05:00,
2013-02-02 03:10:00,11.5,6.8,30.10,SW,225,5.6,9.2,81,0.00,,,0.00,WUHU216HW,2013-02-02 08:10:00,
2013-02-02 03:15:00,11.7,6.9,30.09,WSW,248,4.5,8.1,81,0.00,,,0.00,WUHU216HW,2013-02-02 08:15:00,
2013-02-02 03:20:00,11.7,6.9,30.09,SSW,203,6.5,8.7,81,0.00,,,0.00,WUHU216HW,2013-02-02 08:20:00,
2013-02-02 03:25:00,11.9,7.1,30.09,SSW,203,2.9,8.7,81,0.00,,,0.00,WUHU216HW,2013-02-02 08:25:00,
2013-02-02 03:30:00,12.1,7.3,30.09,WSW,248,6.0,6.9,81,0.00,,,0.00,WUHU216HW,2013-02-02 08:30:00,
2013-02-02 03:35:00,12.2,7.5,30.09,SW,225,3.4,8.5,81,0.00,,,0.00,WUHU216HW,2013-02-02 08:35:00,
2013-02-02 03:40:00,12.2,7.5,30.09,SW,225,5.6,8.5,81,0.00,,,0.00,WUHU216HW,2013-02-02 08:40:00,
2013-02-02 03:45:00,12.6,7.8,30.09,WSW,248,7.4,8.9,81,0.00,,,0.00,WUHU216HW,2013-02-02 08:45:00,
2013-02-02 03:50:00,12.6,7.8,30.09,West,270,6.3,8.9,81,0.00,,,0.00,WUHU216HW,2013-02-02 08:50:00,
2013-02-02 03:55:00,12.8,8.0,30.08,SW,225,9.6,9.6,81,0.00,,,0.00,WUHU216HW,2013-02-02 08:55:00,
2013-02-02 04:00:00,13.0,8.2,30.08,SW,225,5.1,9.6,81,0.00,,,0.00,WUHU216HW,2013-02-02 09:00:00,
2013-02-02 04:05:00,13.0,8.2,30.08,SW,225,6.7,9.6,81,0.00,,,0.00,WUHU216HW,2013-02-02 09:05:00,
2013-02-02 04:10:00,13.1,8.4,30.07,SW,225,5.4,10.1,81,0.00,,,0.00,WUHU216HW,2013-02-02 09:10:00,
2013-02-02 04:15:00,13.3,8.6,30.07,WSW,248,5.6,10.1,81,0.00,,,0.00,WUHU216HW,2013-02-02 09:15:00,
2013-02-02 04:20:00,13.3,8.6,30.07,WSW,248,5.6,8.7,81,0.00,,,0.00,WUHU216HW,2013-02-02 09:20:00,
2013-02-02 04:25:00,13.5,8.7,30.07,SSW,203,6.0,8.7,81,0.00,,,0.00,WUHU216HW,2013-02-02 09:25:00,
2013-02-02 04:30:00,13.5,8.7,30.07,SSW,203,6.3,8.7,81,0.00,,,0.00,WUHU216HW,2013-02-02 09:30:00,
2013-02-02 04:35:00,13.7,8.9,30.06,SW,225,5.4,9.2,81,0.00,,,0.00,WUHU216HW,2013-02-02 09:35:00,
2013-02-02 04:40:00,13.7,8.9,30.06,WSW,248,7.8,9.2,81,0.00,,,0.00,WUHU216HW,2013-02-02 09:40:00,
2013-02-02 04:45:00,13.7,8.9,30.06,SSW,203,5.4,8.7,81,0.00,,,0.00,WUHU216HW,2013-02-02 09:45:00,
2013-02-02 04:50:00,13.9,9.1,30.05,SW,225,6.3,7.8,81,0.00,,,0.00,WUHU216HW,2013-02-02 09:50:00,
2013-02-02 04:55:00,13.9,9.1,30.05,SW,225,5.4,7.6,81,0.00,,,0.00,WUHU216HW,2013-02-02 09:55:00,
2013-02-02 05:00:00,14.0,9.3,30.05,WSW,248,2.5,7.6,81,0.00,,,0.00,WUHU216HW,2013-02-02 10:00:00,
2013-02-02 05:05:00,14.0,9.3,30.04,WSW,248,2.0,6.7,81,0.00,,,0.00,WUHU216HW,2013-02-02 10:05:00,
2013-02-02 05:10:00,14.0,9.3,30.04,SW,225,5.4,8.7,81,0.00,,,0.00,WUHU216HW,2013-02-02 10:10:00,
2013-02-02 05:15:00,14.0,9.3,30.04,South,180,5.4,8.7,81,0.00,,,0.00,WUHU216HW,2013-02-02 10:15:00,
2013-02-02 05:20:00,14.0,9.3,30.04,SSW,203,3.8,7.8,81,0.00,,,0.00,WUHU216HW,2013-02-02 10:20:00,
2013-02-02 05:25:00,14.2,9.5,30.04,WSW,248,3.6,7.8,81,0.00,,,0.00,WUHU216HW,2013-02-02 10:25:00,
2013-02-02 05:30:00,14.4,9.6,30.03,SSW,203,4.0,7.6,81,0.00,,,0.00,WUHU216HW,2013-02-02 10:30:00,
2013-02-02 05:35:00,14.4,9.6,30.03,SW,225,4.7,7.6,81,0.00,,,0.00,WUHU216HW,2013-02-02 10:35:00,
2013-02-02 05:40:00,14.4,9.6,30.03,WSW,248,4.7,7.6,81,0.00,,,0.00,WUHU216HW,2013-02-02 10:40:00,
2013-02-02 05:45:00,14.6,10.1,30.03,SSW,203,4.7,5.6,82,0.00,,,0.00,WUHU216HW,2013-02-02 10:45:00,
2013-02-02 05:50:00,14.6,10.1,30.02,SW,225,6.0,6.5,82,0.00,,,0.00,WUHU216HW,2013-02-02 10:50:00,
2013-02-02 05:55:00,14.6,10.1,30.02,WSW,248,4.0,6.9,82,0.00,,,0.00,WUHU216HW,2013-02-02 10:55:00,
2013-02-02 06:00:00,14.6,10.1,30.02,SW,225,4.0,6.9,82,0.00,,,0.00,WUHU216HW,2013-02-02 11:00:00,
2013-02-02 06:05:00,14.8,10.3,30.02,WSW,248,4.5,6.0,82,0.00,,,0.00,WUHU216HW,2013-02-02 11:05:00,
2013-02-02 06:10:00,14.8,10.3,30.02,SW,225,4.0,6.0,82,0.00,,,0.00,WUHU216HW,2013-02-02 11:10:00,
2013-02-02 06:15:00,14.8,10.3,30.02,SW,225,4.0,6.9,82,0.00,,,0.00,WUHU216HW,2013-02-02 11:15:00,
2013-02-02 06:20:00,14.8,10.3,30.02,SW,225,3.4,6.9,82,0.00,,,0.00,WUHU216HW,2013-02-02 11:20:00,
2013-02-02 06:25:00,14.8,10.3,30.02,SSW,203,5.1,5.8,82,0.00,,,0.00,WUHU216HW,2013-02-02 11:25:00,
2013-02-02 06:30:00,14.9,10.5,30.02,SSE,158,4.3,6.3,82,0.00,,,0.00,WUHU216HW,2013-02-02 11:30:00,
2013-02-02 06:35:00,14.9,10.7,30.02,SSW,203,4.0,6.3,83,0.00,,,0.00,WUHU216HW,2013-02-02 11:35:00,
2013-02-02 06:40:00,15.1,10.9,30.01,SSW,203,5.1,6.7,83,0.00,,,0.00,WUHU216HW,2013-02-02 11:40:00,
2013-02-02 06:45:00,15.1,10.9,30.01,South,180,2.5,6.7,83,0.00,,,0.00,WUHU216HW,2013-02-02 11:45:00,
2013-02-02 06:50:00,15.1,10.9,30.01,South,180,4.0,5.8,83,0.00,,,0.00,WUHU216HW,2013-02-02 11:50:00,
2013-02-02 06:55:00,15.1,10.9,30.01,SSW,203,1.6,5.8,83,0.00,,,0.00,WUHU216HW,2013-02-02 11:55:00,
2013-02-02 07:00:00,15.1,10.9,30.01,South,180,2.7,4.9,83,0.00,,,0.00,WUHU216HW,2013-02-02 12:00:00,
2013-02-02 07:05:00,15.1,10.9,30.01,SSW,203,2.7,4.9,83,0.00,,,0.00,WUHU216HW,2013-02-02 12:05:00,
2013-02-02 07:10:00,15.1,10.9,30.01,SSE,158,3.6,4.9,83,0.00,,,0.00,WUHU216HW,2013-02-02 12:10:00,
2013-02-02 07:15:00,15.1,11.2,30.01,SSW,203,1.8,4.7,84,0.00,,,0.00,WUHU216HW,2013-02-02 12:15:00,
2013-02-02 07:20:00,15.1,11.2,30.00,South,180,3.8,5.1,84,0.00,,,0.00,WUHU216HW,2013-02-02 12:20:00,
2013-02-02 07:25:00,15.1,11.2,30.00,SSW,203,4.9,5.8,84,0.00,,,0.00,WUHU216HW,2013-02-02 12:25:00,
2013-02-02 07:30:00,15.1,11.2,30.00,SSE,158,4.0,5.8,84,0.00,,,0.00,WUHU216HW,2013-02-02 12:30:00,
2013-02-02 07:35:00,15.3,11.3,30.00,SSW,203,4.3,6.0,84,0.00,,,0.00,WUHU216HW,2013-02-02 12:35:00,
2013-02-02 07:41:00,15.3,11.3,30.00,SSW,203,2.0,6.0,84,0.00,,,0.00,WUHU216HW,2013-02-02 12:41:00,
2013-02-02 07:45:00,15.3,11.3,29.99,South,180,3.6,4.9,84,0.00,,,0.00,WUHU216HW,2013-02-02 12:45:00,
2013-02-02 07:50:00,15.3,11.3,30.00,South,180,1.3,5.4,84,0.00,,,0.00,WUHU216HW,2013-02-02 12:50:00,
2013-02-02 07:55:00,15.5,11.4,30.00,South,180,1.8,5.4,84,0.00,,,0.00,WUHU216HW,2013-02-02 12:55:00,
2013-02-02 08:01:00,15.5,11.4,29.99,SSW,203,4.0,4.7,84,0.00,,,0.00,WUHU216HW,2013-02-02 13:01:00,
2013-02-02 08:06:00,15.5,11.4,29.99,SW,225,3.1,5.4,84,0.00,,,0.00,WUHU216HW,2013-02-02 13:06:00,
2013-02-02 08:11:00,15.5,11.4,29.99,South,180,4.0,5.4,84,0.00,,,0.00,WUHU216HW,2013-02-02 13:11:00,
2013-02-02 08:16:00,15.5,11.7,29.99,SSW,203,4.7,6.3,85,0.00,,,0.00,WUHU216HW,2013-02-02 13:16:00,
2013-02-02 08:21:00,15.5,11.7,29.99,South,180,3.8,6.3,85,0.00,,,0.00,WUHU216HW,2013-02-02 13:21:00,
2013-02-02 08:26:00,15.7,11.6,29.99,SSW,203,4.0,7.2,84,0.00,,,0.00,WUHU216HW,2013-02-02 13:26:00,
2013-02-02 08:31:00,15.8,11.8,29.99,SSW,203,3.1,7.2,84,0.00,,,0.00,WUHU216HW,2013-02-02 13:31:00,
2013-02-02 08:36:00,15.8,12.1,29.99,SSW,203,6.3,6.3,85,0.00,,,0.00,WUHU216HW,2013-02-02 13:36:00,
2013-02-02 08:41:00,16.0,12.3,29.99,South,180,4.3,7.6,85,0.00,,,0.00,WUHU216HW,2013-02-02 13:41:00,
2013-02-02 08:46:00,16.2,12.4,29.98,SSW,203,1.1,7.6,85,0.00,,,0.00,WUHU216HW,2013-02-02 13:46:00,
2013-02-02 08:51:00,16.2,12.4,29.98,SE,135,4.9,5.4,85,0.00,,,0.00,WUHU216HW,2013-02-02 13:51:00,
2013-02-02 08:56:00,16.4,12.6,29.98,SSW,203,2.7,5.8,85,0.00,,,0.00,WUHU216HW,2013-02-02 13:56:00,
2013-02-02 09:01:00,16.6,12.8,29.98,SSW,203,3.6,7.6,85,0.00,,,0.00,WUHU216HW,2013-02-02 14:01:00,
2013-02-02 09:06:00,16.6,12.5,29.98,South,180,4.0,9.2,84,0.00,,,0.00,WUHU216HW,2013-02-02 14:06:00,
2013-02-02 09:11:00,16.9,12.8,29.98,South,180,3.8,9.2,84,0.00,,,0.00,WUHU216HW,2013-02-02 14:11:00,
2013-02-02 09:16:00,17.1,13.0,29.98,SSW,203,4.0,7.4,84,0.00,,,0.00,WUHU216HW,2013-02-02 14:16:00,
2013-02-02 09:21:00,17.3,13.1,29.97,South,180,4.9,7.4,84,0.00,,,0.00,WUHU216HW,2013-02-02 14:21:00,
2013-02-02 09:26:00,17.6,13.5,29.97,SW,225,5.1,6.9,84,0.00,,,0.00,WUHU216HW,2013-02-02 14:26:00,
2013-02-02 09:31:00,18.0,13.9,29.97,SW,225,3.6,7.6,84,0.00,,,0.00,WUHU216HW,2013-02-02 14:31:00,
2013-02-02 09:36:00,18.0,13.9,29.97,WSW,248,3.6,7.6,84,0.00,,,0.00,WUHU216HW,2013-02-02 14:36:00,
2013-02-02 09:41:00,18.4,14.2,29.97,SSW,203,3.1,6.9,84,0.00,,,0.00,WUHU216HW,2013-02-02 14:41:00,
2013-02-02 09:46:00,18.5,14.4,29.97,SW,225,4.0,6.9,84,0.00,,,0.00,WUHU216HW,2013-02-02 14:46:00,
2013-02-02 09:51:00,18.9,14.8,29.97,South,180,5.1,6.9,84,0.00,,,0.00,WUHU216HW,2013-02-02 14:51:00,
2013-02-02 09:56:00,19.3,15.1,29.96,SSW,203,4.7,6.9,84,0.00,,,0.00,WUHU216HW,2013-02-02 14:56:00,
2013-02-02 10:01:00,19.4,15.0,29.96,SSW,203,4.9,8.1,83,0.00,,,0.00,WUHU216HW,2013-02-02 15:01:00,
2013-02-02 10:06:00,19.6,15.2,29.96,SW,225,6.0,8.1,83,0.00,,,0.00,WUHU216HW,2013-02-02 15:06:00,
2013-02-02 10:11:00,19.8,15.1,29.96,SW,225,5.4,8.3,82,0.00,,,0.00,WUHU216HW,2013-02-02 15:11:00,
2013-02-02 10:16:00,19.8,15.4,29.96,SW,225,4.7,8.3,83,0.00,,,0.00,WUHU216HW,2013-02-02 15:16:00,
2013-02-02 10:21:00,20.2,15.5,29.96,SSW,203,4.7,10.1,82,0.00,,,0.00,WUHU216HW,2013-02-02 15:21:00,
2013-02-02 10:26:00,20.2,15.5,29.95,SSW,203,5.4,10.1,82,0.00,,,0.00,WUHU216HW,2013-02-02 15:26:00,
2013-02-02 10:31:00,20.5,16.1,29.95,SW,225,6.5,7.4,83,0.00,,,0.00,WUHU216HW,2013-02-02 15:31:00,
2013-02-02 10:36:00,20.5,16.1,29.95,SSW,203,6.0,9.6,83,0.00,,,0.00,WUHU216HW,2013-02-02 15:36:00,
2013-02-02 10:41:00,20.5,15.8,29.95,SW,225,10.5,10.5,82,0.00,,,0.00,WUHU216HW,2013-02-02 15:41:00,
2013-02-02 10:46:00,20.7,16.0,29.95,SSW,203,2.9,10.5,82,0.00,,,0.00,WUHU216HW,2013-02-02 15:46:00,
2013-02-02 10:51:00,20.9,16.2,29.94,SSW,203,4.0,10.5,82,0.00,,,0.00,WUHU216HW,2013-02-02 15:51:00,
2013-02-02 10:56:00,21.1,16.4,29.94,SSW,203,4.5,6.5,82,0.00,,,0.00,WUHU216HW,2013-02-02 15:56:00,
2013-02-02 11:01:00,21.2,16.6,29.94,SSW,203,7.2,7.2,82,0.00,,,0.00,WUHU216HW,2013-02-02 16:01:00,
2013-02-02 11:06:00,21.2,16.6,29.94,SW,225,4.0,7.2,82,0.00,,,0.00,WUHU216HW,2013-02-02 16:06:00,
2013-02-02 11:11:00,21.4,16.7,29.94,South,180,5.4,7.2,82,0.00,,,0.00,WUHU216HW,2013-02-02 16:11:00,
2013-02-02 11:16:00,21.6,16.9,29.94,SW,225,6.9,6.9,82,0.00,,,0.00,WUHU216HW,2013-02-02 16:16:00,
2013-02-02 11:21:00,22.0,17.3,29.94,WSW,248,5.4,6.9,82,0.00,,,0.00,WUHU216HW,2013-02-02 16:21:00,
2013-02-02 11:26:00,22.0,17.3,29.94,SSW,203,4.0,6.9,82,0.00,,,0.00,WUHU216HW,2013-02-02 16:26:00,
2013-02-02 11:31:00,22.3,17.6,29.94,WSW,248,4.3,6.3,82,0.00,,,0.00,WUHU216HW,2013-02-02 16:31:00,
2013-02-02 11:36:00,22.3,17.4,29.94,SW,225,3.4,8.9,81,0.00,,,0.00,WUHU216HW,2013-02-02 16:36:00,
2013-02-02 11:41:00,22.7,17.7,29.93,SW,225,2.7,8.9,81,0.00,,,0.00,WUHU216HW,2013-02-02 16:41:00,
2013-02-02 11:46:00,22.9,18.2,29.93,WSW,248,2.9,6.3,82,0.00,,,0.00,WUHU216HW,2013-02-02 16:46:00,
2013-02-02 11:51:00,23.2,18.3,29.93,SW,225,6.9,6.9,81,0.00,,,0.00,WUHU216HW,2013-02-02 16:51:00,
2013-02-02 11:56:00,23.4,18.5,29.93,SW,225,4.7,6.9,81,0.00,,,0.00,WUHU216HW,2013-02-02 16:56:00,
2013-02-02 12:01:00,23.4,18.5,29.93,SW,225,3.8,6.9,81,0.00,,,0.00,WUHU216HW,2013-02-02 17:01:00,
2013-02-02 12:06:00,23.9,19.0,29.93,SW,225,5.8,5.8,81,0.00,,,0.00,WUHU216HW,2013-02-02 17:06:00,
2013-02-02 12:11:00,24.1,19.2,29.92,SW,225,4.3,5.8,81,0.00,,,0.00,WUHU216HW,2013-02-02 17:11:00,
2013-02-02 12:16:00,24.3,19.1,29.92,SW,225,3.4,5.8,80,0.00,,,0.00,WUHU216HW,2013-02-02 17:16:00,
2013-02-02 12:21:00,24.3,19.1,29.92,WSW,248,2.9,5.4,80,0.00,,,0.00,WUHU216HW,2013-02-02 17:21:00,
2013-02-02 12:26:00,24.3,19.1,29.91,SW,225,2.7,6.3,80,0.00,,,0.00,WUHU216HW,2013-02-02 17:26:00,
2013-02-02 12:31:00,24.3,19.1,29.91,SSW,203,4.0,6.3,80,0.00,,,0.00,WUHU216HW,2013-02-02 17:31:00,
2013-02-02 12:36:00,24.3,19.1,29.91,SSW,203,2.7,4.7,80,0.00,,,0.00,WUHU216HW,2013-02-02 17:36:00,
2013-02-02 12:41:00,24.3,19.1,29.91,SSW,203,2.5,4.7,80,0.00,,,0.00,WUHU216HW,2013-02-02 17:41:00,
2013-02-02 12:46:00,24.5,19.3,29.91,SW,225,1.1,3.4,80,0.00,,,0.00,WUHU216HW,2013-02-02 17:46:00,
2013-02-02 12:51:00,24.5,19.3,29.91,SW,225,2.2,3.6,80,0.00,,,0.00,WUHU216HW,2013-02-02 17:51:00,
2013-02-02 12:56:00,24.8,19.6,29.90,SW,225,5.1,5.1,80,0.00,,,0.00,WUHU216HW,2013-02-02 17:56:00,
2013-02-02 13:01:00,24.8,19.6,29.90,South,180,3.6,5.4,80,0.00,,,0.00,WUHU216HW,2013-02-02 18:01:00,
2013-02-02 13:06:00,24.8,19.6,29.90,West,270,1.3,5.4,80,0.00,,,0.00,WUHU216HW,2013-02-02 18:06:00,
2013-02-02 13:11:00,24.8,19.9,29.89,WSW,248,2.5,5.1,81,0.00,,,0.00,WUHU216HW,2013-02-02 18:11:00,
2013-02-02 13:16:00,24.7,19.7,29.89,West,270,2.5,4.9,81,0.00,,,0.00,WUHU216HW,2013-02-02 18:16:00,
2013-02-02 13:21:00,24.8,19.6,29.89,WSW,248,2.9,4.0,80,0.00,,,0.00,WUHU216HW,2013-02-02 18:21:00,
2013-02-02 13:26:00,24.8,19.6,29.89,SW,225,2.0,4.0,80,0.00,,,0.00,WUHU216HW,2013-02-02 18:26:00,
2013-02-02 13:31:00,25.2,20.0,29.89,WNW,293,2.5,4.0,80,0.00,,,0.00,WUHU216HW,2013-02-02 18:31:00,
2013-02-02 13:36:00,25.2,20.0,29.89,WSW,248,0.4,3.1,80,0.00,,,0.00,WUHU216HW,2013-02-02 18:36:00,
2013-02-02 13:41:00,25.4,20.1,29.89,West,270,1.6,3.6,80,0.00,,,0.00,WUHU216HW,2013-02-02 18:41:00,
2013-02-02 13:46:00,25.4,20.3,29.89,WNW,293,2.2,5.4,81,0.00,,,0.00,WUHU216HW,2013-02-02 18:46:00,
2013-02-02 13:51:00,25.2,20.0,29.89,WNW,293,1.6,5.4,80,0.00,,,0.00,WUHU216HW,2013-02-02 18:51:00,
2013-02-02 13:56:00,25.2,20.3,29.89,WNW,293,3.1,4.9,81,0.00,,,0.00,WUHU216HW,2013-02-02 18:56:00,
2013-02-02 14:01:00,25.2,20.3,29.89,SW,225,3.4,4.9,81,0.00,,,0.00,WUHU216HW,2013-02-02 19:01:00,
2013-02-02 14:06:00,25.2,20.0,29.89,WNW,293,2.7,5.8,80,0.00,,,0.00,WUHU216HW,2013-02-02 19:06:00,
2013-02-02 14:11:00,25.2,20.3,29.89,NW,315,1.8,5.8,81,0.00,,,0.00,WUHU216HW,2013-02-02 19:11:00,
2013-02-02 14:16:00,25.2,20.3,29.89,WSW,248,2.5,3.4,81,0.00,,,0.00,WUHU216HW,2013-02-02 19:16:00,
2013-02-02 14:21:00,25.6,20.3,29.89,West,270,1.1,4.3,80,0.00,,,0.00,WUHU216HW,2013-02-02 19:21:00,
2013-02-02 14:26:00,25.7,20.4,29.89,WNW,293,1.8,4.3,80,0.00,,,0.00,WUHU216HW,2013-02-02 19:26:00,
2013-02-02 14:31:00,25.9,20.6,29.89,North,0,2.5,5.4,80,0.00,,,0.00,WUHU216HW,2013-02-02 19:31:00,
2013-02-02 14:36:00,25.7,20.4,29.89,NW,315,2.0,5.4,80,0.00,,,0.00,WUHU216HW,2013-02-02 19:36:00,
2013-02-02 14:41:00,25.6,20.5,29.89,NNW,338,3.8,6.3,81,0.00,,,0.00,WUHU216HW,2013-02-02 19:41:00,
2013-02-02 14:46:00,25.6,20.3,29.89,NNW,338,3.4,6.3,80,0.00,,,0.00,WUHU216HW,2013-02-02 19:46:00,
2013-02-02 14:51:00,25.4,20.1,29.89,NNE,23,3.4,6.3,80,0.00,,,0.00,WUHU216HW,2013-02-02 19:51:00,
2013-02-02 14:56:00,25.2,20.0,29.89,North,0,6.0,6.0,80,0.00,,,0.00,WUHU216HW,2013-02-02 19:56:00,
2013-02-02 15:01:00,24.8,19.6,29.89,North,0,2.5,7.4,80,0.00,,,0.00,WUHU216HW,2013-02-02 20:01:00,
2013-02-02 15:06:00,24.7,19.4,29.89,NNW,338,1.6,7.8,80,0.00,,,0.00,WUHU216HW,2013-02-02 20:06:00,
2013-02-02 15:11:00,24.5,19.3,29.90,NNW,338,4.3,7.8,80,0.00,,,0.00,WUHU216HW,2013-02-02 20:11:00,
2013-02-02 15:16:00,24.1,18.9,29.90,North,0,6.0,6.9,80,0.00,,,0.00,WUHU216HW,2013-02-02 20:16:00,
2013-02-02 15:21:00,23.9,19.0,29.90,NNW,338,2.5,6.3,81,0.00,,,0.00,WUHU216HW,2013-02-02 20:21:00,
2013-02-02 15:26:00,23.8,18.5,29.90,WNW,293,3.4,7.6,80,0.00,,,0.00,WUHU216HW,2013-02-02 20:26:00,
2013-02-02 15:31:00,23.4,18.2,29.90,North,0,5.6,10.3,80,0.00,,,0.00,WUHU216HW,2013-02-02 20:31:00,
2013-02-02 15:36:00,23.2,17.7,29.90,NNW,338,6.5,10.3,79,0.00,,,0.00,WUHU216HW,2013-02-02 20:36:00,
2013-02-02 15:41:00,23.0,17.6,29.90,NNW,338,8.9,8.9,79,0.00,,,0.00,WUHU216HW,2013-02-02 20:41:00,
2013-02-02 15:46:00,22.7,17.2,29.91,WNW,293,4.7,10.3,79,0.00,,,0.00,WUHU216HW,2013-02-02 20:46:00,
2013-02-02 15:51:00,22.5,17.0,29.91,NNW,338,5.8,10.3,79,0.00,,,0.00,WUHU216HW,2013-02-02 20:51:00,
2013-02-02 15:56:00,22.1,16.7,29.91,NW,315,5.8,9.2,79,0.00,,,0.00,WUHU216HW,2013-02-02 20:56:00,
2013-02-02 16:01:00,21.8,16.3,29.91,NW,315,6.5,11.4,79,0.00,,,0.00,WUHU216HW,2013-02-02 21:01:00,
2013-02-02 16:06:00,21.6,16.4,29.91,NNW,338,8.5,11.4,80,0.00,,,0.00,WUHU216HW,2013-02-02 21:06:00,
2013-02-02 16:11:00,21.6,16.4,29.91,North,0,6.5,8.5,80,0.00,,,0.00,WUHU216HW,2013-02-02 21:11:00,
2013-02-02 16:16:00,21.4,16.2,29.91,North,0,4.7,7.4,80,0.00,,,0.00,WUHU216HW,2013-02-02 21:16:00,
2013-02-02 16:21:00,21.2,16.0,29.91,North,0,2.9,7.4,80,0.00,,,0.00,WUHU216HW,2013-02-02 21:21:00,
2013-02-02 16:26:00,21.2,16.0,29.91,WNW,293,2.0,5.4,80,0.00,,,0.00,WUHU216HW,2013-02-02 21:26:00,
2013-02-02 16:31:00,21.1,15.6,29.92,North,0,3.8,7.6,79,0.00,,,0.00,WUHU216HW,2013-02-02 21:31:00,
2013-02-02 16:36:00,20.7,14.9,29.92,North,0,3.8,7.6,78,0.00,,,0.00,WUHU216HW,2013-02-02 21:36:00,
2013-02-02 16:41:00,20.5,15.0,29.92,NNW,338,2.9,6.3,79,0.00,,,0.00,WUHU216HW,2013-02-02 21:41:00,
2013-02-02 16:46:00,20.5,15.3,29.92,North,0,3.8,6.0,80,0.00,,,0.00,WUHU216HW,2013-02-02 21:46:00,
2013-02-02 16:51:00,20.3,14.5,29.92,NW,315,4.0,6.9,78,0.00,,,0.00,WUHU216HW,2013-02-02 21:51:00,
2013-02-02 16:56:00,20.2,14.7,29.92,North,0,1.1,6.9,79,0.00,,,0.00,WUHU216HW,2013-02-02 21:56:00,
2013-02-02 17:01:00,20.2,14.7,29.92,North,0,2.5,4.0,79,0.00,,,0.00,WUHU216HW,2013-02-02 22:01:00,
2013-02-02 17:06:00,20.0,14.5,29.92,North,0,1.1,4.0,79,0.00,,,0.00,WUHU216HW,2013-02-02 22:06:00,
2013-02-02 17:11:00,19.8,14.3,29.93,NW,315,2.5,3.4,79,0.00,,,0.00,WUHU216HW,2013-02-02 22:11:00,
2013-02-02 17:16:00,19.8,14.3,29.93,NW,315,0.4,3.1,79,0.00,,,0.00,WUHU216HW,2013-02-02 22:16:00,
2013-02-02 17:21:00,19.8,14.3,29.93,NNW,338,1.8,4.7,79,0.00,,,0.00,WUHU216HW,2013-02-02 22:21:00,
2013-02-02 17:26:00,19.6,14.1,29.93,North,0,3.8,4.7,79,0.00,,,0.00,WUHU216HW,2013-02-02 22:26:00,
2013-02-02 17:31:00,19.4,14.0,29.93,North,0,3.1,4.5,79,0.00,,,0.00,WUHU216HW,2013-02-02 22:31:00,
2013-02-02 17:36:00,19.1,13.2,29.93,NW,315,2.0,6.0,78,0.00,,,0.00,WUHU216HW,2013-02-02 22:36:00,
2013-02-02 17:41:00,19.1,13.2,29.93,North,0,3.4,6.0,78,0.00,,,0.00,WUHU216HW,2013-02-02 22:41:00,
2013-02-02 17:46:00,19.1,13.2,29.93,NW,315,2.0,4.5,78,0.00,,,0.00,WUHU216HW,2013-02-02 22:46:00,
2013-02-02 17:51:00,18.9,13.1,29.94,North,0,3.6,3.6,78,0.00,,,0.00,WUHU216HW,2013-02-02 22:51:00,
2013-02-02 17:56:00,18.7,12.9,29.94,NNE,23,2.9,5.4,78,0.00,,,0.00,WUHU216HW,2013-02-02 22:56:00,
2013-02-02 18:01:00,18.5,12.7,29.94,NNW,338,1.1,5.8,78,0.00,,,0.00,WUHU216HW,2013-02-02 23:01:00,
2013-02-02 18:06:00,18.4,12.5,29.94,NW,315,2.7,5.8,78,0.00,,,0.00,WUHU216HW,2013-02-02 23:06:00,
2013-02-02 18:11:00,18.4,12.9,29.94,North,0,3.1,6.0,79,0.00,,,0.00,WUHU216HW,2013-02-02 23:11:00,
2013-02-02 18:16:00,18.2,12.7,29.94,NW,315,4.0,6.0,79,0.00,,,0.00,WUHU216HW,2013-02-02 23:16:00,
2013-02-02 18:21:00,18.2,12.7,29.94,WNW,293,2.7,4.7,79,0.00,,,0.00,WUHU216HW,2013-02-02 23:21:00,
2013-02-02 18:26:00,18.0,12.5,29.95,NW,315,4.0,4.3,79,0.00,,,0.00,WUHU216HW,2013-02-02 23:26:00,
2013-02-02 18:31:00,17.8,12.3,29.94,NW,315,1.1,4.0,79,0.00,,,0.00,WUHU216HW,2013-02-02 23:31:00,
2013-02-02 18:36:00,17.8,12.3,29.95,NNW,338,2.7,4.9,79,0.00,,,0.00,WUHU216HW,2013-02-02 23:36:00,
2013-02-02 18:41:00,17.6,12.4,29.95,North,0,2.7,6.0,80,0.00,,,0.00,WUHU216HW,2013-02-02 23:41:00,
2013-02-02 18:46:00,17.6,12.2,29.95,NNE,23,4.0,6.0,79,0.00,,,0.00,WUHU216HW,2013-02-02 23:46:00,
2013-02-02 18:51:00,17.6,12.2,29.96,North,0,0.4,5.4,79,0.00,,,0.00,WUHU216HW,2013-02-02 23:51:00,
2013-02-02 18:56:00,17.5,12.0,29.96,East,90,2.2,4.3,79,0.00,,,0.00,WUHU216HW,2013-02-02 23:56:00,
2013-02-02 19:01:00,17.5,12.2,29.96,North,0,1.6,6.3,80,0.00,,,0.00,WUHU216HW,2013-02-03 00:01:00,
2013-02-02 19:06:00,17.5,12.5,29.96,North,0,2.0,6.3,81,0.00,,,0.00,WUHU216HW,2013-02-03 00:06:00,
2013-02-02 19:11:00,17.3,12.3,29.96,NNW,338,4.3,5.8,81,0.00,,,0.00,WUHU216HW,2013-02-03 00:11:00,
2013-02-02 19:16:00,17.1,12.3,29.96,SE,135,0.7,6.9,81,0.00,,,0.00,WUHU216HW,2013-02-03 00:16:00,
2013-02-02 19:21:00,17.1,12.3,29.97,NNW,338,4.5,7.4,81,0.00,,,0.00,WUHU216HW,2013-02-03 00:21:00,
2013-02-02 19:26:00,16.9,12.1,29.97,North,0,3.4,8.9,81,0.00,,,0.00,WUHU216HW,2013-02-03 00:26:00,
2013-02-02 19:31:00,16.6,11.4,29.96,NNE,23,4.7,9.2,80,0.00,,,0.00,WUHU216HW,2013-02-03 00:31:00,
2013-02-02 19:36:00,16.4,11.3,29.96,NNW,338,3.8,9.2,80,0.00,,,0.00,WUHU216HW,2013-02-03 00:36:00,
2013-02-02 19:41:00,16.2,11.2,29.97,NNW,338,2.2,8.3,80,0.00,,,0.00,WUHU216HW,2013-02-03 00:41:00,
2013-02-02 19:46:00,16.2,11.2,29.96,North,0,6.3,7.4,80,0.00,,,0.00,WUHU216HW,2013-02-03 00:46:00,
2013-02-02 19:51:00,16.0,11.3,29.97,North,0,3.6,7.4,81,0.00,,,0.00,WUHU216HW,2013-02-03 00:51:00,
2013-02-02 19:56:00,16.0,11.3,29.97,NNW,338,3.6,6.0,81,0.00,,,0.00,WUHU216HW,2013-02-03 00:56:00,
2013-02-02 20:01:00,16.0,11.3,29.97,NNE,23,1.8,5.1,81,0.00,,,0.00,WUHU216HW,2013-02-03 01:01:00,
2013-02-02 20:06:00,16.0,11.4,29.97,East,90,5.4,6.3,82,0.00,,,0.00,WUHU216HW,2013-02-03 01:06:00,
2013-02-02 20:11:00,15.8,11.1,29.97,North,0,4.7,6.3,81,0.00,,,0.00,WUHU216HW,2013-02-03 01:11:00,
2013-02-02 20:16:00,15.7,10.9,29.97,North,0,4.7,6.3,81,0.00,,,0.00,WUHU216HW,2013-02-03 01:16:00,
2013-02-02 20:21:00,15.5,10.7,29.97,North,0,1.8,4.9,81,0.00,,,0.00,WUHU216HW,2013-02-03 01:21:00,
2013-02-02 20:26:00,15.5,10.7,29.97,North,0,1.3,4.0,81,0.00,,,0.00,WUHU216HW,2013-02-03 01:26:00,
2013-02-02 20:31:00,15.5,10.7,29.97,NE,45,0.9,5.8,81,0.00,,,0.00,WUHU216HW,2013-02-03 01:31:00,
2013-02-02 20:36:00,15.3,10.5,29.97,NNE,23,1.1,5.8,81,0.00,,,0.00,WUHU216HW,2013-02-03 01:36:00,
2013-02-02 20:41:00,15.1,10.4,29.97,North,0,1.1,4.0,81,0.00,,,0.00,WUHU216HW,2013-02-03 01:41:00,
2013-02-02 20:46:00,14.9,10.2,29.97,North,0,0.4,3.4,81,0.00,,,0.00,WUHU216HW,2013-02-03 01:46:00,
2013-02-02 20:51:00,14.9,10.2,29.97,NNW,338,3.1,3.1,81,0.00,,,0.00,WUHU216HW,2013-02-03 01:51:00,
2013-02-02 20:56:00,14.8,10.0,29.97,North,0,1.3,4.0,81,0.00,,,0.00,WUHU216HW,2013-02-03 01:56:00,
2013-02-02 21:01:00,14.8,10.0,29.97,North,0,3.4,4.3,81,0.00,,,0.00,WUHU216HW,2013-02-03 02:01:00,
2013-02-02 21:06:00,14.6,9.8,29.97,NNE,23,0.2,4.3,81,0.00,,,0.00,WUHU216HW,2013-02-03 02:06:00,
2013-02-02 21:11:00,14.2,9.5,29.97,North,0,0.7,3.4,81,0.00,,,0.00,WUHU216HW,2013-02-03 02:11:00,
2013-02-02 21:16:00,14.0,9.3,29.97,NNW,338,0.4,2.5,81,0.00,,,0.00,WUHU216HW,2013-02-03 02:16:00,
2013-02-02 21:21:00,13.9,9.1,29.97,North,0,0.7,2.5,81,0.00,,,0.00,WUHU216HW,2013-02-03 02:21:00,
2013-02-02 21:26:00,13.9,9.1,29.97,North,0,0.0,0.9,81,0.00,,,0.00,WUHU216HW,2013-02-03 02:26:00,
2013-02-02 21:31:00,13.5,8.7,29.97,North,0,0.0,1.1,81,0.00,,,0.00,WUHU216HW,2013-02-03 02:31:00,
2013-02-02 21:36:00,13.3,8.6,29.97,NNE,23,0.0,1.1,81,0.00,,,0.00,WUHU216HW,2013-02-03 02:36:00,
2013-02-02 21:41:00,13.1,8.4,29.97,NNE,23,0.0,1.1,81,0.00,,,0.00,WUHU216HW,2013-02-03 02:41:00,
2013-02-02 21:46:00,12.8,8.0,29.97,NE,45,0.0,0.9,81,0.00,,,0.00,WUHU216HW,2013-02-03 02:46:00,
2013-02-02 21:51:00,12.4,7.7,29.97,NE,45,0.2,0.9,81,0.00,,,0.00,WUHU216HW,2013-02-03 02:51:00,
2013-02-02 21:56:00,12.1,7.3,29.97,NE,45,0.0,0.7,81,0.00,,,0.00,WUHU216HW,2013-02-03 02:56:00,
2013-02-02 22:01:00,11.7,6.9,29.97,NNW,338,0.0,0.4,81,0.00,,,0.00,WUHU216HW,2013-02-03 03:01:00,
2013-02-02 22:06:00,11.3,6.6,29.97,NNW,338,0.0,0.4,81,0.00,,,0.00,WUHU216HW,2013-02-03 03:06:00,
2013-02-02 22:11:00,11.0,6.2,29.97,NNW,338,0.0,0.7,81,0.00,,,0.00,WUHU216HW,2013-02-03 03:11:00,
2013-02-02 22:16:00,10.6,5.9,29.97,NNW,338,0.0,0.7,81,0.00,,,0.00,WUHU216HW,2013-02-03 03:16:00,
2013-02-02 22:21:00,10.4,5.4,29.97,NNW,338,0.0,0.0,80,0.00,,,0.00,WUHU216HW,2013-02-03 03:21:00,
2013-02-02 22:26:00,10.1,5.0,29.97,NNW,338,0.0,0.0,80,0.00,,,0.00,WUHU216HW,2013-02-03 03:26:00,
2013-02-02 22:31:00,9.7,4.8,29.97,NNW,338,0.0,0.0,80,0.00,,,0.00,WUHU216HW,2013-02-03 03:31:00,
2013-02-02 22:36:00,9.5,4.6,29.97,NNW,338,0.0,0.0,80,0.00,,,0.00,WUHU216HW,2013-02-03 03:36:00,
2013-02-02 22:41:00,9.2,4.2,29.97,NNW,338,0.0,0.4,80,0.00,,,0.00,WUHU216HW,2013-02-03 03:41:00,
2013-02-02 22:46:00,9.0,4.2,29.97,NNW,338,0.4,0.4,80,0.00,,,0.00,WUHU216HW,2013-02-03 03:46:00,
2013-02-02 22:51:00,8.5,3.6,29.97,NNW,338,0.0,0.4,80,0.00,,,0.00,WUHU216HW,2013-02-03 03:51:00,
2013-02-02 22:56:00,8.3,3.4,29.96,NNW,338,0.0,0.4,80,0.00,,,0.00,WUHU216HW,2013-02-03 03:56:00,
2013-02-02 23:01:00,7.9,3.1,29.97,NNW,338,0.0,0.0,80,0.00,,,0.00,WUHU216HW,2013-02-03 04:01:00,
2013-02-02 23:06:00,7.7,2.9,29.97,NNW,338,0.0,0.0,80,0.00,,,0.00,WUHU216HW,2013-02-03 04:06:00,
2013-02-02 23:11:00,7.6,2.7,29.97,NNW,338,0.0,0.0,80,0.00,,,0.00,WUHU216HW,2013-02-03 04:11:00,
2013-02-02 23:16:00,7.2,2.3,29.96,NNW,338,0.0,0.0,80,0.00,,,0.00,WUHU216HW,2013-02-03 04:16:00,
2013-02-02 23:21:00,7.0,2.2,29.96,NNW,338,0.0,0.0,80,0.00,,,0.00,WUHU216HW,2013-02-03 04:21:00,
2013-02-02 23:26:00,6.8,2.0,29.96,NNW,338,0.0,0.0,80,0.00,,,0.00,WUHU216HW,2013-02-03 04:26:00,
2013-02-02 23:31:00,6.7,2.1,29.96,NNW,338,0.0,0.0,81,0.00,,,0.00,WUHU216HW,2013-02-03 04:31:00,
2013-02-02 23:36:00,6.5,1.6,29.96,NNW,338,0.0,0.0,80,0.00,,,0.00,WUHU216HW,2013-02-03 04:36:00,
2013-02-02 23:41:00,6.1,1.5,29.96,NNW,338,0.0,0.0,81,0.00,,,0.00,WUHU216HW,2013-02-03 04:41:00,
2013-02-02 23:46:00,5.9,1.4,29.96,NNW,338,0.0,0.0,81,0.00,,,0.00,WUHU216HW,2013-02-03 04:46:00,
2013-02-02 23:51:00,5.8,1.2,29.96,NNW,338,0.0,0.0,81,0.00,,,0.00,WUHU216HW,2013-02-03 04:51:00,
2013-02-02 23:56:00,5.6,0.7,29.96,NNW,338,0.0,0.0,80,0.00,,,0.00,WUHU216HW,2013-02-03 04:56:00,